www.pogodaiklimat.ru

Погода и климат >> Архив погоды >> Финляндия >> Йомала


ПОГОДА в Йомале

  • Прогноз погоды в Йомале
  • Монитор погоды в Йомале

АРХИВ ПОГОДЫ в Йомале

Время (UTC), дата Ветер
(напр.,м/с)
 
Видим.   Явления Облачность Т
(С)
Тd
(С)
f
(%)
Тe
(С)
Тes
(С)
Комфортность P
(гПа)
Po
(гПа)
Тmin
(С)
Tmax
(С)
R
(мм)
R24
(мм)
S
(см)
15 18.06 ЮЗ 5-7
{8}
40 км ясно +22.2 +13.2 57 +25 +28 комфорт 1015.4 1013.9
18 18.06 ЮЗ 4-6
{7}
50 км 1/1
[]
+17.9 +12.5 71 +18 +18 1014.9 1013.4 +17.1 +23.4
21 18.06 Ю 3-4
{4}
50 км 9/9
[]
+16.0 +12.6 80 +16 +16 1014.4 1012.8
00 19.06 ЮЗ 5-9
{9}
50 км в посл. час дождь {ливн. осадки} 5/0 1000 м
[]
+15.4 +12.5 83 +14 +14 1013.7 1012.1 0.5
03 19.06 ЮЗ 4-7
{8}
35 км 1/0
[]
+14.6 +12.7 88 +13 +14 1013.2 1011.7
06 19.06 ЮЗ 4-6
{8}
45 км {метель} 3/3 2000 м
[]
+17.4 +13.6 78 +17 +20 1012.8 1011.3 +13.9 +17.9 0.5
09 19.06 Ю 4-6
{6}
24 км ясно +20.7 +15.0 70 +24 +32 комфорт 1012.4 1010.9
12 19.06 ЮЗ 6-9
{9}
30 км ясно +20.0 +13.6 67 +22 +27 комфорт 1012.6 1011.1
15 19.06 Ю 7-11
{11}
45 км ясно +20.1 +14.0 68 +22 +24 комфорт 1011.7 1010.2
18 19.06 ЮЗ 4-7
{9}
50 км ясно +19.0 +13.2 69 +20 +20 1010.9 1009.4 +17.4 +21.6
21 19.06 ЮЗ 3-5
{5}
45 км 9/0
[]
+16.3 +12.7 79 +16 +16 1011.6 1010.0
00 20.06 Ю 1-2
{5}
8000 м дымка 4/0
[]
+14.7 +12.6 87 +15 +15 1011.3 1009.8
03 20.06 ЮВ 2-3
{3}
2100 м дымка ясно +14.8 +13.1 90 +14 +15 1011.1 1009.6
06 20.06 ЮВ 4-6
{7}
24 км {дымка} 1/1 1500 м
[]
+21.2 +12.6 58 +23 +27 комфорт 1010.3 1008.8 +13.1 +21.2
09 20.06 ЮВ 5-7
{9}
16 км 3/0 1500 м
[]
+22.2 +14.9 63 +26 +31 душно 1009.1 1007.6
12 20.06 Ю 6-9
{10}
35 км 5/0 1500 м
[]
+22.5 +14.4 60 +26 +30 жарко 1008.3 1006.8
15 20.06 Ю 4-8
{8}
40 км ясно +21.9 +15.4 67 +26 +30 душно 1006.8 1005.3
18 20.06 Ю 3-4
{6}
30 км 1/1 2000 м
[]
+19.3 +16.0 81 +21 +22 комфорт 1006.5 1005.0 +19.3 +23.6
21 20.06 Ю 3-5
{5}
7000 м дымка ясно +16.4 +15.5 94 +16 +16 1006.2 1004.7
00 21.06 ЮЗ 2-4
{5}
3500 м дымка ясно +15.4 +15.0 97 +15 +15 1006.1 1004.5
03 21.06 СЗ 2-4
{7}
3800 м дождь 9/0 1000 м
[]
+16.4 +15.7 96 +16 +17 1006.6 1005.1 0.8
06 21.06 З 4-6
{7}
45 км {ливн. осадки, дождь} ясно +19.1 +15.7 81 +21 +24 комфорт 1007.8 1006.3 +14.9 +19.4 2
09 21.06 ЮЗ 5-7
{7}
40 км 9/0 600 м
[]
+20.4 +14.1 67 +23 +26 комфорт 1008.7 1007.3
12 21.06 ЮЗ 6-9
{10}
45 км ясно +20.6 +12.7 61 +23 +28 комфорт 1009.7 1008.2
15 21.06 ЮЗ 5-9
{9}
45 км ясно +21.1 +10.3 50 +23 +26 комфорт 1009.6 1008.1
18 21.06 ЮЗ 4-6
{8}
50 км ясно +18.9 +10.1 57 +20 +20 1009.4 1007.9 +18.8 +21.7
21 21.06 ЮЗ 2-4
{4}
35 км ясно +13.6 +11.2 85 +13 +13 1010.3 1008.8
00 22.06 З 5-7
{7}
50 км 9/9 2000 м
[]
+15.0 +5.8 54 +14 +14 1010.5 1009.0
03 22.06 З 4-8
{11}
50 км ясно +13.1 +7.6 69 +11 +12 1011.0 1009.5
06 22.06 ЮЗ 6-12
{12}
45 км ясно +14.7 +9.1 69 +13 +15 1011.7 1010.2 +13.0 +18.9
09 22.06 З 5-9
{13}
50 км 10/0 1000 м
[]
+16.4 +8.7 60 +16 +19 1014.3 1012.8
12 22.06 СЗ 3-7
{8}
35 км 3/0 1500 м
[]
+18.5 +8.6 52 +19 +28 1016.8 1015.3
15 22.06 ЮВ 3-4
{5}
50 км 6/0 1500 м
[]
+18.7 +8.0 50 +19 +23 1017.6 1016.1
18 22.06 СВ 3-5
{6}
50 км {ливн. осадки, дождь} 5/5 2000 м
[]
+16.0 +10.2 68 +16 +16 1018.6 1017.0 +14.7 +20.4
21 22.06 В 1-3
{3}
26 км 3/0
[]
+11.1 +9.2 88 +11 +11 1019.8 1018.2
00 23.06 ЮЗ 1-2
{2}
30 км ясно +8.0 +7.5 97 +7 +7 1020.6 1019.0
03 23.06 СВ 2-2
{2}
35 км ясно +9.7 +9.0 95 +8 +8 1021.5 1020.0
06 23.06 В 4-5
{5}
50 км ясно +17.7 +7.8 52 +17 +21 1022.2 1020.7 +7.1 +17.8
09 23.06 Ю 4-7
{8}
45 км ясно +19.0 +9.8 55 +20 +28 1022.3 1020.8
12 23.06 ЮЗ 4-6
{6}
35 км ясно +18.7 +10.4 58 +19 +28 1022.3 1020.8
15 23.06 ЮЗ 5-7
{8}
50 км 3/0
[]
+18.4 +9.7 57 +18 +21 1021.8 1020.3
18 23.06 Ю 3-5
{6}
50 км 4/4 2000 м
[]
+16.5 +11.2 71 +16 +17 1021.6 1020.1 +16.5 +21.0
21 23.06 СЗ 1-2
{4}
50 км {ливн. осадки, дождь} 9/0
[]
+14.7 +10.1 74 +15 +15 1022.9 1021.4
00 24.06 С 2-2
{3}
45 км {ливн. осадки, дождь} ясно +10.1 +9.7 97 +8 +8 1024.8 1023.3
03 24.06 С 2-3
{3}
50 км ясно +12.0 +10.8 92 +11 +11 1027.0 1025.4
06 24.06 С 3-6
{6}
40 км ясно +16.1 +8.6 61 +16 +20 1028.7 1027.1 +8.2 +16.7
09 24.06 СВ 3-5
{6}
45 км ясно +18.6 +8.7 52 +19 +30 1029.9 1028.4
12 24.06 СЗ 4-6
{7}
35 км ясно +19.0 +6.7 45 +19 +28 1030.6 1029.1
15 24.06 СВ 3-5
{6}
40 км ясно +18.0 +8.1 52 +18 +24 1030.7 1029.2
18 24.06 ЮВ 2-3
{3}
50 км ясно +15.6 +8.6 63 +16 +16 1030.4 1028.8 +15.3 +20.0
21 24.06 ЮЗ 1-1
{2}
50 км ясно +10.0 +8.4 90 +9 +9 1031.2 1029.6
00 25.06 ЮЗ 1-2
{2}
27 км 9/0
[]
+8.6 +8.3 98 +8 +8 1030.9 1029.3
03 25.06 штиль 0-1
{1}
18 км ясно +11.4 +11.0 97 +11 +11 1030.5 1028.9
06 25.06 Ю 3-4
{4}
50 км ясно +15.8 +11.6 76 +15 +20 1030.3 1028.7 +7.7 +15.8
09 25.06 ЮЗ 5-7
{7}
40 км ясно +17.6 +6.8 49 +17 +24 1029.9 1028.4
12 25.06 Ю 5-7
{7}
40 км ясно +18.8 +7.6 48 +19 +26 1028.8 1027.3

 

Местоположение метеостанции Йомала (Финляндия): широта 60.18 долгота 19.99 высота над уровнем моря 11 м.

В архиве по умолчанию представлена погода в Йомале за последнюю неделю. Архивные данные за месяц целиком и за предыдущие месяцы, начиная с января 2011 года, Вы можете получить, выбрав интересующий диапазон дат из раскрывающегося списка и нажав кнопку "Ввод!".


*Определитесь, кто Вы:
робот инопланетянин человек

Внимание! Время в таблицах - всемирное. Для получения местного времени необходимо прибавить поправку, которая равна 1 ч.

Смотрите также архив погоды в соседних городах и на ближайших метеорологических станциях:

Погода в Йомала аэропорту (Финляндия) (8 км)
Погода в Логнес Харбор (Финляндия) (18 км)
Погода в Лемланд Нихамн (Финляндия) (25 км)
Погода в Кумлинге (Финляндия) (43 км)
Погода на Хаммарланде (Финляндия) (49 км)
Погода в Содерарме (Швеция) (57 км)
Погода в Кокар Богскар (Финляндия) (77 км)
Погода в Кустави Исокари (Финляндия) (83 км)
Погода в Сванберге (Швеция) (85 км)
Погода в Свенска Хогарна (Швеция) (86 км)

Пояснения к столбцам:

Ветер - указаны скорость ветра в м/с - средняя за 10 мин, порывы в срок и между сроками (в фигурных скобках) и направление, откуда дует ветер: С - северный, СВ - северо-восточный, В - восточный, ЮВ - юго-восточный, Ю - южный, ЮЗ - юго-западный, З - западный, СЗ - северо-западный.
Видимость - горизонтальная дальность видимости в метрах или километрах. При видимости от 1 до 10 км при отсутствии осадков обычно наблюдается дымка, при ухудшении видимости до 1 км и менее - туман. В сухую погоду видимость может ухудшаться дымом, пылью или мглою.
Явления - указаны атмосферные явления, наблюдавшиеся в срок или в последний час перед сроком; фигурными скобками обозначены явления, наблюдавшиеся между сроками (за 1-3 часа до срока); квадратными скобками обозначены град или гололедные отложения с указанием их диаметра в мм.
Облачность - указаны через наклонную черту общая и нижняя облачность в баллах и высота нижней границы облаков в метрах; квадратными скобками обозначены формы облаков: Ci - перистые, Cs - перисто-слоистые, Cc - перисто-кучевые, Ac - высококучевые, As - высокослоистые, Sc - слоисто-кучевые, Ns - слоисто-дождевые, Cu - кучевые, Cb - кучево-дождевые. Подробнее классификацию облаков см. в Атласе облаков (PDF).
T - Температура воздуха - температура, измеренная на высоте 2 м над землей.
Td - Температура точки росы - температура, при понижении до которой содержащийся в воздухе водяной пар достигнет насыщения.
f - Относительная влажность воздуха - влажноcть воздуха, измеренная на высоте 2 м над землей.
Te - Эффективная температура - температура, которую ощущает одетый по сезону человек в тени. Характеристика душности погоды. При расчете учитывается влияние влажности воздуха и скорости ветра на теплоощущения человека.
Tes - Эффективная температура на солнце - температура, которую ощущает человек, с поправкой на солнечный нагрев. Характеристика знойности погоды. Зависит от высоты солнца над горизонтом, облачности и скорости ветра. Ночью, в пасмурную погоду, а также при ветре 12 м/с и более поправка равна нулю.
P - Атмосферное давление - приведенное к уровню моря атмосферное давление.
Po - Атмосферное давление - измеренное на уровне метеостанции атмосферное давление.
Tmin - Минимальная температура - минимум температуры воздуха на высоте 2 м над землей.
Tmax - Максимальная температура - максимум температуры воздуха на высоте 2 м над землей.
R - Количество осадков - Количество выпавших осадков за период времени, мм. При наведении курсора мыши на число - период времени, за который выпало указанное количество осадков.
R24 - Количество осадков - Количество выпавших осадков за 24 часа, мм.
S - Снежный покров - Высота снежного покрова, см. При наведении курсора мыши на число - состояние снежного покрова и степень покрытия местности в баллах.